QPF
0.02 0.03 0.04 0.03 0.03 0.02 0.01 0.01 0.02 0.02 0.02 0.02 0.02 0.03 0.02 0.03 0.04 0.02 0.03 0.03 0.05 0.05 0.05 0.06 0.07 0.06 0.04 0.04 0.04 0.06 0.07 0.09 0.08 0.08 0.06 0.06 0.05 0.06 0.07 0.06 0.04 0.04 0.06
0.03 0.04 0.05 0.03 0.02 0.02 0.01 0.01 0.01 0.01 0.01 0.02 0.03 0.03 0.03 0.04 0.04 0.04 0.03 0.03 0.05 0.06 0.05 0.05 0.07 0.06 0.04 0.04 0.03 0.04 0.06 0.08 0.10 0.10 0.10 0.09 0.08 0.08 0.07 0.06 0.04 0.03 0.05
0.01 0.03 0.03 0.03 0.02 0.01 0.01 0.01 0.01 0.02 0.02 0.02 0.03 0.03 0.03 0.03 0.04 0.04 0.03 0.03 0.04 0.06 0.05 0.05 0.06 0.06 0.05 0.04 0.03 0.04 0.05 0.05 0.06 0.06 0.05 0.03 0.04 0.07 0.07 0.06 0.07 0.06 0.05
0.01 0.02 0.02 0.03 0.02 0.01 0.01 0.02 0.02 0.02 0.01 0.01 0.02 0.02 0.02 0.03 0.04 0.04 0.03 0.03 0.05 0.07 0.06 0.05 0.05 0.06 0.05 0.04 0.04 0.04 0.05 0.06 0.06 0.03 0.01 0.01 0.02 0.07 0.09 0.07 0.06 0.06 0.05
0.01 0.01 0.02 0.02 0.01 0.01 0.02 0.02 0.02 0.01 0.02 0.02 0.02 0.03 0.02 0.03 0.04 0.06 0.04 0.05 0.07 0.10 0.07 0.04 0.03 0.04 0.04 0.03 0.03 0.03 0.04 0.05 0.05 0.02 0.01 0.01 0.02 0.07 0.08 0.10 0.07 0.05 0.05
0.01 0.01 0.02 0.02 0.01 0.02 0.02 0.02 0.03 0.02 0.02 0.02 0.03 0.03 0.03 0.04 0.05 0.06 0.07 0.13 0.11 0.11 0.09 0.06 0.03 0.03 0.04 0.03 0.03 0.03 0.04 0.05 0.03 0.02 0.01 0.01 0.02 0.06 0.07 0.07 0.06 0.05 0.05
0.02 0.02 0.02 0.03 0.02 0.03 0.03 0.03 0.06 0.05 0.04 0.04 0.03 0.04 0.04 0.05 0.04 0.03 0.07 0.17 0.15 0.12 0.11 0.06 0.04 0.03 0.04 0.03 0.03 0.03 0.05 0.03 0.02 0.01 0.01 0.01 0.02 0.06 0.05 0.06 0.04 0.04 0.05
0.03 0.02 0.02 0.03 0.03 0.03 0.05 0.03 0.03 0.06 0.06 0.05 0.04 0.05 0.04 0.05 0.04 0.03 0.04 0.06 0.10 0.11 0.08 0.05 0.04 0.03 0.04 0.04 0.03 0.03 0.04 0.03 0.01 0.00 0.01 0.02 0.06 0.06 0.04 0.04 0.04 0.07 0.07
0.02 0.02 0.01 0.02 0.03 0.02 0.03 0.05 0.04 0.04 0.03 0.03 0.03 0.03 0.03 0.04 0.05 0.04 0.05 0.05 0.06 0.07 0.06 0.04 0.03 0.03 0.04 0.04 0.03 0.04 0.05 0.02 0.01 0.00 0.01 0.03 0.06 0.06 0.04 0.04 0.04 0.07 0.08
0.01 0.01 0.00 0.00 0.01 0.01 0.01 0.02 0.03 0.03 0.03 0.02 0.02 0.03 0.04 0.03 0.04 0.05 0.06 0.06 0.04 0.04 0.04 0.03 0.03 0.02 0.03 0.04 0.04 0.05 0.04 0.02 0.01 0.00 0.01 0.03 0.05 0.06 0.04 0.04 0.05 0.06 0.06
0.01 0.01 0.01 0.00 0.00 0.00 0.00 0.00 0.01 0.01 0.01 0.01 0.01 0.02 0.02 0.02 0.02 0.03 0.05 0.05 0.04 0.04 0.03 0.04 0.03 0.02 0.03 0.03 0.04 0.05 0.03 0.02 0.01 0.01 0.02 0.05 0.06 0.06 0.06 0.06 0.06 0.04 0.04
0.02 0.02 0.01 0.01 0.01 0.00 0.00 0.00 0.01 0.01 0.01 0.01 0.01 0.01 0.01 0.01 0.01 0.02 0.04 0.05 0.05 0.05 0.04 0.03 0.02 0.03 0.03 0.02 0.03 0.03 0.04 0.04 0.03 0.03 0.05 0.06 0.07 0.08 0.07 0.06 0.04 0.03 0.04
0.01 0.02 0.02 0.01 0.01 0.00 0.00 0.00 0.00 0.01 0.01 0.02 0.02 0.02 0.01 0.01 0.02 0.02 0.02 0.02 0.02 0.03 0.03 0.02 0.02 0.02 0.02 0.01 0.01 0.02 0.04 0.03 0.02 0.02 0.05 0.07 0.08 0.09 0.09 0.08 0.05 0.04 0.06
0.01 0.02 0.01 0.01 0.00 0.00 0.00 0.00 0.00 0.01 0.01 0.01 0.02 0.03 0.01 0.01 0.02 0.02 0.01 0.01 0.01 0.01 0.02 0.01 0.01 0.01 0.01 0.01 0.02 0.02 0.02 0.02 0.01 0.01 0.04 0.05 0.06 0.08 0.10 0.11 0.07 0.06 0.07
0.01 0.01 0.01 0.01 0.00 0.00 0.00 0.00 0.00 0.00 0.01 0.01 0.01 0.01 0.01 0.01 0.01 0.01 0.01 0.01 0.01 0.01 0.01 0.01 0.01 0.01 0.01 0.01 0.01 0.02 0.01 0.01 0.01 0.01 0.02 0.03 0.03 0.04 0.08 0.10 0.07 0.05 0.05
0.01 0.01 0.01 0.01 0.00 0.00 0.00 0.00 0.00 0.00 0.01 0.02 0.01 0.00 0.01 0.01 0.01 0.01 0.01 0.01 0.02 0.02 0.02 0.02 0.02 0.02 0.01 0.01 0.01 0.02 0.02 0.01 0.01 0.01 0.00 0.01 0.01 0.02 0.03 0.05 0.06 0.05 0.03
0.01 0.01 0.00 0.00 0.00 0.00 0.00 0.00 0.00 0.00 0.01 0.01 0.01 0.01 0.00 0.01 0.01 0.01 0.00 0.01 0.02 0.02 0.02 0.03 0.05 0.04 0.03 0.02 0.02 0.01 0.01 0.01 0.01 0.01 0.01 0.01 0.01 0.01 0.02 0.02 0.04 0.03 0.03
0.01 0.01 0.01 0.01 0.01 0.00 0.00 0.00 0.00 0.00 0.00 0.01 0.01 0.01 0.01 0.01 0.01 0.01 0.00 0.01 0.01 0.01 0.01 0.02 0.04 0.05 0.04 0.03 0.02 0.02 0.02 0.01 0.01 0.01 0.00 0.01 0.01 0.01 0.01 0.01 0.02 0.03 0.03
0.01 0.01 0.01 0.01 0.01 0.01 0.00 0.00 0.01 0.00 0.00 0.01 0.02 0.02 0.02 0.02 0.01 0.01 0.00 0.01 0.01 0.01 0.01 0.02 0.02 0.04 0.04 0.02 0.02 0.02 0.01 0.01 0.01 0.01 0.01 0.00 0.00 0.01 0.01 0.01 0.01 0.02 0.03
0.01 0.01 0.01 0.01 0.01 0.01 0.00 0.00 0.00 0.00 0.01 0.01 0.02 0.01 0.01 0.01 0.01 0.01 0.01 0.01 0.01 0.01 0.01 0.01 0.02 0.03 0.03 0.01 0.01 0.01 0.01 0.01 0.01 0.00 0.00 0.00 0.00 0.01 0.01 0.01 0.01 0.02 0.02
0.00 0.00 0.00 0.00 0.01 0.01 0.00 0.00 0.00 0.01 0.01 0.01 0.01 0.02 0.01 0.02 0.03 0.03 0.03 0.01 0.01 0.01 0.01 0.01 0.02 0.03 0.03 0.03 0.01 0.01 0.01 0.01 0.00 0.00 0.00 0.01 0.01 0.01 0.01 0.01 0.01 0.01 0.00
0.00 0.00 0.00 0.00 0.00 0.01 0.01 0.01 0.01 0.01 0.01 0.01 0.03 0.04 0.05 0.05 0.05 0.04 0.04 0.02 0.01 0.01 0.02 0.01 0.01 0.01 0.02 0.03 0.02 0.01 0.00 0.00 0.00 0.01 0.01 0.01 0.01 0.01 0.01 0.01 0.00 0.00 0.00
0.01 0.00 0.00 0.00 0.00 0.00 0.01 0.01 0.02 0.02 0.02 0.03 0.03 0.02 0.04 0.05 0.04 0.03 0.02 0.02 0.01 0.01 0.01 0.01 0.01 0.01 0.02 0.02 0.01 0.01 0.01 0.00 0.01 0.01 0.01 0.01 0.01 0.01 0.01 0.02 0.01 0.01 0.01
0.01 0.01 0.00 0.00 0.00 0.00 0.00 0.01 0.02 0.02 0.02 0.02 0.03 0.02 0.03 0.04 0.03 0.02 0.02 0.01 0.01 0.01 0.01 0.01 0.01 0.01 0.01 0.01 0.01 0.01 0.01 0.00 0.01 0.01 0.00 0.00 0.00 0.01 0.01 0.02 0.03 0.02 0.02
0.01 0.01 0.01 0.00 0.00 0.00 0.01 0.01 0.02 0.02 0.02 0.03 0.02 0.02 0.03 0.04 0.03 0.02 0.01 0.01 0.01 0.01 0.00 0.01 0.01 0.01 0.01 0.01 0.01 0.01 0.01 0.00 0.00 0.01 0.00 0.00 0.00 0.00 0.01 0.01 0.02 0.01 0.02
0.01 0.01 0.01 0.01 0.01 0.01 0.01 0.01 0.01 0.02 0.02 0.02 0.02 0.01 0.02 0.03 0.04 0.03 0.02 0.01 0.01 0.01 0.01 0.01 0.02 0.02 0.01 0.01 0.01 0.02 0.02 0.01 0.00 0.00 0.00 0.00 0.00 0.00 0.00 0.01 0.01 0.01 0.01
MSLP
1014.24 1013.24 1012.33 1011.61 1011.10 1010.81 1010.68 1010.65 1010.65 1010.62 1010.54 1010.41 1010.28 1010.17 1010.13 1010.19 1010.32 1010.53 1010.77 1011.00 1011.20 1011.36 1011.48 1011.59 1011.70 1011.84 1012.03 1012.24 1012.47 1012.69 1012.88 1013.02 1013.11 1013.16 1013.17 1013.16 1013.15 1013.14 1013.14 1013.15 1013.15 1013.14 1013.13
1014.40 1013.47 1012.62 1011.92 1011.41 1011.09 1010.90 1010.80 1010.72 1010.63 1010.52 1010.40 1010.30 1010.25 1010.29 1010.42 1010.63 1010.89 1011.17 1011.43 1011.65 1011.82 1011.95 1012.07 1012.19 1012.32 1012.49 1012.67 1012.86 1013.04 1013.19 1013.31 1013.38 1013.41 1013.43 1013.43 1013.42 1013.42 1013.41 1013.41 1013.40 1013.38 1013.35
1014.50 1013.66 1012.89 1012.24 1011.75 1011.41 1011.18 1011.02 1010.89 1010.75 1010.61 1010.48 1010.40 1010.40 1010.48 1010.65 1010.90 1011.19 1011.49 1011.76 1012.00 1012.19 1012.35 1012.49 1012.64 1012.79 1012.95 1013.12 1013.28 1013.42 1013.53 1013.62 1013.67 1013.70 1013.72 1013.73 1013.73 1013.73 1013.72 1013.71 1013.67 1013.63 1013.58
1014.51 1013.78 1013.10 1012.53 1012.09 1011.77 1011.53 1011.34 1011.16 1010.99 1010.83 1010.70 1010.62 1010.63 1010.73 1010.92 1011.17 1011.45 1011.74 1012.01 1012.26 1012.48 1012.69 1012.88 1013.07 1013.26 1013.44 1013.60 1013.74 1013.85 1013.92 1013.97 1014.01 1014.04 1014.06 1014.07 1014.08 1014.08 1014.06 1014.01 1013.95 1013.88 1013.80
1014.42 1013.81 1013.25 1012.78 1012.42 1012.15 1011.93 1011.73 1011.54 1011.35 1011.17 1011.04 1010.97 1010.97 1011.07 1011.24 1011.46 1011.71 1011.97 1012.24 1012.49 1012.74 1012.99 1013.25 1013.50 1013.73 1013.94 1014.11 1014.24 1014.32 1014.36 1014.39 1014.40 1014.42 1014.44 1014.46 1014.46 1014.44 1014.39 1014.31 1014.20 1014.09 1013.98
1014.29 1013.80 1013.37 1013.03 1012.76 1012.56 1012.37 1012.19 1012.00 1011.81 1011.63 1011.50 1011.42 1011.43 1011.50 1011.64 1011.82 1012.03 1012.25 1012.49 1012.74 1013.02 1013.31 1013.62 1013.93 1014.22 1014.47 1014.65 1014.77 1014.83 1014.85 1014.85 1014.84 1014.85 1014.86 1014.86 1014.84 1014.79 1014.70 1014.56 1014.41 1014.24 1014.09
1014.19 1013.82 1013.51 1013.29 1013.13 1013.00 1012.86 1012.70 1012.52 1012.34 1012.17 1012.04 1011.97 1011.98 1012.04 1012.15 1012.28 1012.44 1012.62 1012.82 1013.06 1013.35 1013.67 1014.03 1014.39 1014.72 1014.99 1015.18 1015.30 1015.34 1015.34 1015.32 1015.29 1015.28 1015.28 1015.26 1015.22 1015.12 1014.98 1014.78 1014.56 1014.34 1014.14
1014.19 1013.92 1013.74 1013.62 1013.55 1013.48 1013.38 1013.25 1013.08 1012.90 1012.75 1012.64 1012.60 1012.61 1012.67 1012.76 1012.87 1012.98 1013.11 1013.27 1013.48 1013.76 1014.09 1014.46 1014.85 1015.20 1015.48 1015.68 1015.79 1015.82 1015.81 1015.77 1015.73 1015.71 1015.69 1015.65 1015.57 1015.43 1015.22 1014.96 1014.68 1014.40 1014.16
1014.33 1014.16 1014.07 1014.05 1014.04 1014.02 1013.94 1013.81 1013.65 1013.48 1013.35 1013.27 1013.26 1013.30 1013.38 1013.47 1013.56 1013.64 1013.72 1013.84 1014.00 1014.24 1014.56 1014.92 1015.30 1015.65 1015.93 1016.13 1016.23 1016.25 1016.23 1016.18 1016.14 1016.10 1016.07 1016.00 1015.89 1015.70 1015.45 1015.13 1014.79 1014.47 1014.19
1014.60 1014.51 1014.51 1014.56 1014.60 1014.60 1014.52 1014.39 1014.22 1014.06 1013.94 1013.90 1013.93 1014.02 1014.13 1014.24 1014.32 1014.38 1014.42 1014.49 1014.60 1014.79 1015.06 1015.38 1015.73 1016.06 1016.33 1016.52 1016.61 1016.63 1016.61 1016.56 1016.51 1016.47 1016.42 1016.33 1016.19 1015.97 1015.68 1015.32 1014.94 1014.58 1014.28
1014.95 1014.95 1015.02 1015.12 1015.19 1015.19 1015.10 1014.95 1014.77 1014.60 1014.51 1014.50 1014.58 1014.72 1014.88 1015.02 1015.11 1015.15 1015.16 1015.18 1015.24 1015.37 1015.57 1015.84 1016.15 1016.44 1016.69 1016.86 1016.95 1016.97 1016.95 1016.91 1016.86 1016.81 1016.75 1016.65 1016.49 1016.24 1015.93 1015.55 1015.15 1014.78 1014.46
1015.31 1015.38 1015.53 1015.67 1015.76 1015.76 1015.65 1015.48 1015.28 1015.12 1015.04 1015.07 1015.19 1015.38 1015.58 1015.75 1015.86 1015.90 1015.89 1015.87 1015.87 1015.94 1016.08 1016.30 1016.55 1016.81 1017.03 1017.19 1017.28 1017.30 1017.29 1017.25 1017.21 1017.16 1017.08 1016.97 1016.79 1016.53 1016.21 1015.83 1015.44 1015.06 1014.74
1015.59 1015.74 1015.95 1016.14 1016.25 1016.24 1016.12 1015.94 1015.73 1015.58 1015.52 1015.58 1015.74 1015.96 1016.20 1016.40 1016.53 1016.57 1016.55 1016.50 1016.46 1016.48 1016.58 1016.74 1016.95 1017.17 1017.37 1017.52 1017.61 1017.64 1017.64 1017.61 1017.56 1017.50 1017.41 1017.28 1017.09 1016.83 1016.51 1016.15 1015.77 1015.42 1015.11
1015.74 1015.98 1016.24 1016.47 1016.60 1016.60 1016.49 1016.31 1016.12 1015.98 1015.94 1016.02 1016.21 1016.46 1016.72 1016.94 1017.07 1017.12 1017.10 1017.04 1016.99 1016.98 1017.04 1017.16 1017.34 1017.54 1017.72 1017.87 1017.97 1018.01 1018.01 1017.98 1017.92 1017.84 1017.74 1017.58 1017.38 1017.12 1016.82 1016.48 1016.14 1015.82 1015.52
1015.77 1016.06 1016.37 1016.63 1016.78 1016.81 1016.73 1016.58 1016.42 1016.31 1016.30 1016.40 1016.60 1016.85 1017.11 1017.33 1017.48 1017.53 1017.52 1017.47 1017.42 1017.41 1017.46 1017.58 1017.74 1017.92 1018.10 1018.24 1018.33 1018.38 1018.38 1018.34 1018.27 1018.17 1018.03 1017.86 1017.64 1017.38 1017.10 1016.79 1016.49 1016.21 1015.94
1015.71 1016.02 1016.35 1016.63 1016.81 1016.88 1016.84 1016.75 1016.64 1016.58 1016.60 1016.71 1016.90 1017.14 1017.39 1017.59 1017.73 1017.79 1017.80 1017.78 1017.76 1017.77 1017.84 1017.96 1018.12 1018.29 1018.46 1018.60 1018.69 1018.72 1018.72 1018.67 1018.58 1018.45 1018.28 1018.08 1017.85 1017.60 1017.33 1017.06 1016.80 1016.55 1016.31
1015.62 1015.92 1016.23 1016.51 1016.71 1016.82 1016.86 1016.84 1016.80 1016.80 1016.85 1016.97 1017.15 1017.35 1017.55 1017.73 1017.85 1017.93 1017.96 1017.98 1018.01 1018.06 1018.16 1018.30 1018.46 1018.63 1018.79 1018.91 1018.99 1019.01 1018.99 1018.93 1018.82 1018.66 1018.47 1018.25 1018.01 1017.76 1017.50 1017.26 1017.04 1016.83 1016.61
1015.57 1015.81 1016.08 1016.34 1016.55 1016.71 1016.81 1016.88 1016.93 1016.99 1017.08 1017.19 1017.34 1017.50 1017.64 1017.77 1017.88 1017.96 1018.02 1018.09 1018.18 1018.29 1018.42 1018.59 1018.75 1018.91 1019.05 1019.15 1019.21 1019.22 1019.18 1019.10 1018.98 1018.81 1018.61 1018.37 1018.12 1017.87 1017.63 1017.42 1017.23 1017.04 1016.85
1015.58 1015.75 1015.95 1016.17 1016.39 1016.59 1016.76 1016.92 1017.05 1017.17 1017.29 1017.40 1017.50 1017.60 1017.68 1017.76 1017.84 1017.92 1018.01 1018.13 1018.28 1018.44 1018.62 1018.80 1018.97 1019.12 1019.23 1019.30 1019.34 1019.33 1019.29 1019.20 1019.08 1018.91 1018.70 1018.46 1018.21 1017.97 1017.74 1017.55 1017.38 1017.22 1017.04
1015.65 1015.74 1015.87 1016.04 1016.25 1016.49 1016.73 1016.96 1017.18 1017.36 1017.50 1017.60 1017.65 1017.68 1017.70 1017.72 1017.76 1017.84 1017.96 1018.12 1018.32 1018.54 1018.75 1018.95 1019.11 1019.24 1019.32 1019.36 1019.38 1019.36 1019.32 1019.24 1019.13 1018.97 1018.78 1018.55 1018.31 1018.07 1017.86 1017.67 1017.52 1017.37 1017.21
1015.72 1015.74 1015.81 1015.95 1016.15 1016.41 1016.71 1017.02 1017.30 1017.54 1017.70 1017.78 1017.79 1017.75 1017.70 1017.66 1017.67 1017.74 1017.88 1018.08 1018.32 1018.57 1018.81 1019.02 1019.17 1019.27 1019.33 1019.35 1019.35 1019.33 1019.30 1019.24 1019.16 1019.03 1018.86 1018.65 1018.42 1018.19 1017.98 1017.80 1017.65 1017.52 1017.37
1015.72 1015.70 1015.73 1015.84 1016.05 1016.35 1016.70 1017.07 1017.41 1017.69 1017.86 1017.93 1017.90 1017.81 1017.70 1017.61 1017.58 1017.64 1017.78 1018.01 1018.27 1018.55 1018.80 1019.00 1019.15 1019.23 1019.26 1019.27 1019.27 1019.26 1019.25 1019.23 1019.18 1019.09 1018.95 1018.77 1018.55 1018.32 1018.12 1017.94 1017.79 1017.66 1017.52
1015.57 1015.55 1015.58 1015.69 1015.92 1016.24 1016.64 1017.06 1017.45 1017.76 1017.96 1018.02 1017.96 1017.83 1017.68 1017.54 1017.48 1017.53 1017.67 1017.90 1018.17 1018.46 1018.71 1018.90 1019.03 1019.09 1019.12 1019.12 1019.13 1019.15 1019.18 1019.20 1019.20 1019.14 1019.03 1018.87 1018.66 1018.44 1018.23 1018.04 1017.89 1017.77 1017.64
1015.24 1015.25 1015.30 1015.44 1015.68 1016.03 1016.47 1016.93 1017.37 1017.72 1017.93 1018.00 1017.95 1017.80 1017.62 1017.46 1017.38 1017.40 1017.54 1017.75 1018.02 1018.29 1018.52 1018.70 1018.81 1018.87 1018.89 1018.91 1018.94 1018.99 1019.06 1019.13 1019.16 1019.15 1019.07 1018.92 1018.72 1018.49 1018.27 1018.08 1017.93 1017.81 1017.70
1014.74 1014.80 1014.89 1015.05 1015.32 1015.69 1016.16 1016.65 1017.13 1017.51 1017.76 1017.86 1017.82 1017.68 1017.50 1017.34 1017.25 1017.26 1017.37 1017.56 1017.80 1018.04 1018.24 1018.40 1018.49 1018.54 1018.56 1018.60 1018.66 1018.75 1018.86 1018.97 1019.05 1019.06 1019.00 1018.87 1018.67 1018.44 1018.22 1018.02 1017.87 1017.76 1017.68
1014.15 1014.26 1014.37 1014.55 1014.82 1015.21 1015.69 1016.20 1016.70 1017.12 1017.41 1017.56 1017.56 1017.46 1017.31 1017.16 1017.08 1017.07 1017.16 1017.31 1017.50 1017.70 1017.87 1017.98 1018.05 1018.09 1018.13 1018.18 1018.27 1018.40 1018.55 1018.70 1018.81 1018.85 1018.81 1018.68 1018.50 1018.27 1018.05 1017.86 1017.72 1017.64 1017.58
Thickness
5750 5755 5756 5758 5759 5760 5761 5763 5764 5765 5766 5768 5768 5769 5770 5771 5772 5772 5773 5773 5773 5774 5775 5775 5775 5775 5776 5776 5775 5775 5775 5775 5774 5774 5773 5773 5773 5773 5772 5772 5771 5771 5770
5752 5754 5755 5756 5757 5758 5759 5761 5762 5763 5764 5765 5766 5767 5768 5769 5769 5770 5770 5771 5771 5771 5772 5773 5773 5773 5773 5774 5773 5773 5773 5772 5772 5772 5771 5771 5771 5771 5771 5770 5770 5769 5769
5752 5752 5753 5754 5755 5756 5757 5759 5760 5761 5762 5763 5764 5764 5765 5766 5766 5767 5768 5768 5768 5769 5769 5769 5770 5770 5771 5771 5771 5771 5770 5770 5770 5769 5769 5769 5769 5769 5769 5768 5768 5767 5767
5750 5750 5751 5751 5752 5753 5754 5756 5758 5759 5760 5760 5761 5762 5762 5762 5763 5764 5764 5765 5766 5766 5766 5766 5766 5767 5767 5767 5767 5767 5767 5767 5767 5766 5766 5766 5767 5767 5766 5766 5766 5766 5765
5748 5748 5748 5749 5750 5750 5752 5753 5755 5757 5758 5758 5758 5758 5759 5759 5760 5760 5761 5762 5762 5762 5763 5763 5763 5763 5763 5764 5764 5764 5764 5764 5764 5764 5763 5764 5764 5764 5764 5764 5764 5763 5763
5746 5746 5746 5746 5747 5748 5749 5750 5752 5753 5754 5754 5754 5755 5756 5756 5756 5757 5758 5758 5759 5759 5759 5759 5759 5760 5760 5760 5760 5760 5760 5761 5760 5760 5760 5761 5761 5762 5762 5762 5761 5761 5760
5743 5744 5744 5744 5744 5745 5746 5747 5748 5750 5750 5750 5751 5751 5752 5752 5753 5753 5754 5755 5755 5755 5755 5755 5755 5756 5756 5756 5756 5757 5757 5757 5756 5757 5757 5757 5758 5758 5759 5759 5759 5758 5758
5742 5741 5741 5741 5742 5742 5743 5743 5744 5745 5745 5746 5746 5747 5748 5748 5749 5750 5751 5751 5751 5751 5751 5751 5751 5751 5751 5752 5752 5753 5753 5752 5752 5753 5753 5754 5754 5755 5755 5755 5755 5755 5755
5741 5740 5739 5739 5739 5739 5740 5740 5741 5742 5742 5742 5743 5744 5744 5745 5745 5746 5747 5747 5747 5747 5747 5747 5747 5747 5747 5747 5747 5748 5748 5748 5748 5748 5749 5750 5750 5751 5751 5751 5751 5751 5751
5738 5738 5737 5737 5737 5737 5737 5737 5738 5738 5738 5739 5740 5740 5740 5741 5741 5742 5742 5743 5743 5743 5743 5743 5743 5743 5743 5743 5743 5743 5743 5743 5743 5744 5744 5745 5746 5747 5747 5747 5747 5747 5747
5735 5735 5735 5735 5734 5734 5734 5734 5735 5735 5735 5735 5735 5736 5736 5736 5737 5737 5738 5739 5739 5739 5739 5739 5739 5739 5739 5739 5739 5739 5739 5739 5739 5739 5740 5741 5742 5742 5742 5743 5743 5743 5743
5731 5733 5734 5733 5733 5732 5732 5732 5732 5731 5731 5731 5731 5732 5732 5732 5733 5734 5734 5734 5735 5735 5735 5734 5734 5734 5734 5734 5733 5734 5734 5734 5734 5735 5735 5736 5737 5737 5737 5738 5738 5738 5738
5732 5733 5733 5732 5732 5731 5730 5730 5729 5728 5728 5728 5728 5728 5728 5728 5729 5729 5729 5729 5730 5730 5730 5730 5729 5729 5729 5728 5728 5728 5728 5729 5729 5730 5731 5732 5732 5732 5732 5732 5732 5733 5733
5731 5732 5733 5733 5731 5730 5729 5728 5726 5726 5725 5725 5725 5725 5725 5724 5724 5724 5724 5725 5725 5725 5726 5725 5724 5724 5724 5723 5723 5723 5723 5723 5723 5724 5725 5726 5727 5727 5727 5727 5727 5727 5727
5730 5731 5732 5732 5730 5728 5727 5726 5724 5723 5723 5723 5722 5722 5722 5721 5720 5720 5720 5720 5721 5721 5721 5720 5720 5719 5719 5718 5718 5717 5717 5717 5718 5718 5719 5720 5721 5721 5722 5722 5722 5722 5722
5730 5731 5731 5730 5729 5727 5725 5723 5722 5721 5721 5720 5720 5720 5719 5718 5718 5717 5716 5716 5716 5716 5716 5716 5715 5714 5713 5713 5712 5712 5712 5712 5712 5712 5713 5713 5714 5715 5716 5717 5717 5716 5717
5731 5731 5730 5729 5728 5725 5723 5722 5720 5719 5719 5718 5717 5717 5716 5716 5715 5714 5713 5712 5712 5712 5712 5711 5710 5710 5708 5708 5707 5707 5707 5707 5707 5707 5707 5707 5708 5709 5710 5711 5711 5711 5711
5731 5730 5729 5729 5725 5723 5722 5720 5718 5717 5716 5715 5715 5714 5713 5713 5712 5711 5710 5709 5709 5709 5708 5706 5705 5704 5702 5701 5701 5701 5701 5701 5701 5701 5701 5701 5702 5702 5703 5704 5705 5705 5705
5731 5729 5727 5726 5723 5721 5720 5718 5716 5715 5714 5713 5712 5711 5711 5710 5710 5709 5707 5706 5706 5705 5704 5703 5701 5699 5697 5696 5696 5696 5696 5696 5696 5696 5696 5696 5696 5697 5697 5698 5698 5699 5699
5732 5729 5726 5724 5722 5720 5717 5715 5713 5711 5710 5710 5709 5709 5708 5707 5707 5706 5705 5704 5703 5701 5699 5698 5696 5695 5693 5692 5692 5690 5690 5690 5691 5691 5691 5691 5691 5691 5691 5691 5692 5692 5693
5729 5727 5724 5721 5719 5717 5714 5710 5708 5706 5706 5706 5706 5706 5706 5705 5704 5703 5702 5700 5699 5697 5695 5694 5693 5690 5688 5688 5685 5682 5683 5685 5685 5685 5686 5686 5686 5686 5686 5686 5686 5686 5686
5727 5725 5723 5721 5718 5717 5714 5711 5708 5706 5704 5703 5703 5703 5702 5702 5701 5701 5699 5697 5696 5694 5691 5690 5689 5685 5683 5683 5680 5675 5672 5674 5678 5680 5680 5680 5680 5681 5680 5680 5680 5680 5681
5725 5724 5723 5720 5718 5716 5713 5710 5706 5703 5701 5699 5699 5699 5699 5699 5698 5698 5696 5694 5693 5691 5688 5687 5685 5683 5679 5679 5679 5675 5668 5665 5667 5672 5673 5675 5675 5675 5675 5675 5675 5675 5675
5725 5725 5723 5719 5716 5714 5711 5707 5703 5699 5696 5696 5696 5696 5697 5696 5695 5695 5693 5692 5690 5688 5686 5685 5683 5681 5679 5675 5675 5675 5673 5670 5665 5663 5666 5668 5669 5669 5669 5670 5670 5670 5670
5725 5723 5721 5717 5714 5712 5710 5706 5702 5699 5697 5695 5695 5694 5694 5693 5693 5692 5691 5689 5687 5685 5684 5682 5681 5679 5677 5674 5672 5671 5669 5667 5666 5661 5658 5660 5662 5663 5664 5665 5665 5665 5665
5722 5720 5718 5714 5711 5710 5707 5705 5701 5698 5695 5692 5691 5690 5690 5689 5689 5689 5688 5686 5684 5683 5681 5680 5678 5676 5674 5673 5671 5670 5667 5665 5662 5659 5655 5654 5655 5657 5659 5660 5660 5661 5661